Showing default

ELEKTRO-L, 37344

Orbit data source: Space-Track

ELEKTRO-L, 37344 is a Commonwealth of Independent States-origin payload satellite in GEO that was launched on Thu, 20 Jan 2011 UTC via a ZENIT-3SLBF launch vehicle from the Tyuratam Missile And Space Complex (TTMTR). Payload-class satellites include a variety of spacecraft equipped with specific instruments for various scientific and technological missions. These include communications satellites like Starlink; space stations such as the ISS; scientific satellites like the Hubble; Earth observation satellites from companies like Planet Labs, Umbra, and HawkEye 360; GPS; miniature CubeSats for education and research; and military/defense satellites.

Not visible in the next 10 days
Identifier
37344, 2011-001A
Orbit
GEO
Last TLE update
17 hours ago
Origin
Manufacturer
Lavochkin
Mission
Non-operational Civil Weather
Bus & Motor
NAVIGATOR, Unknown motor
Mass
1,620 kg wet, 1,180 kg dry
Launch date (UTC)
2011-01-20 (14 years ago)
Launch vehicle
ZENIT-3SLBF
Launch site
Tyuratam Missile And Space Complex (TTMTR)
Object type
Payload
Rocket body
Debris
Shape & HBR
Box + 1 Pan + 1 Ant, 10 m
Radar Cross Section
11.105 m², Large (>1 m²)

Expand to show TLE details & history

TLE from 17 hours ago
0 ELEKTRO-L
1 37344U 11001A   25129.09319600 -.00000130  00000-0  00000-0 0  9996
2 37344   8.7676  58.5170 0004909  19.7961 166.2204  1.00252465 52438
Epoch: 2025-05-09T02:14Z
Definitive object data (Epoch: 2025-05-09T02:14:12.134Z)
Latitude
-0.93383°
Longitude
-16.2212°
Altitude
35,811.821 km
Speed
3.073 km/s
True Right ascension
16h 17m 56s
True Declination
0° 55' 58"
Sunlit
Object was in daylight at TLE epoch
Visualization TLE readout
Latitude
8.48451°
Longitude
-126.9413°
Altitude
35,779.248 km
Speed
3.075 km/s
Apparent Right ascension
09h 21m 55s
Apparent Declination
2° 55' 45"
Sunlit
Object is in daylight
Visualization observer readout
Local Sidereal Time
02:59:55
Azimuth
84.221° E
Elevation
-2.328°
Doppler factor
1
Orbital elements
Apogee altitude
35,813.748 km
Perigee altitude
35,772.344 km
Semi-major axis
42,171.183 km
Eccentricity
0.0004909
Inclination
8.7676°
RAAN
58.517°
Arg. of periapsis
19.7961°
True anomaly
166.23379°
Mean anomaly
166.2204°
Eccentric anomaly
166.2271°
Mean motion
0.25062 °/min
BSTAR
Unknown
Orbital period
1436.43 mins
Loading historical data...
37344 neighbors
Loading maneuver chart data...
Loading SW <> Apogee altitude chart data...
Loading historical data...
Loading historical data...
Loading historical data...
Loading historical data...
Loading historical data...
Loading historical data...
Loading historical data...

ELEKTRO-L Visibility forecast

Observer location: undefined°, undefined°

ELEKTRO-L is not visible in the next 10 days
Span
Click to sort rows by Start time (UTC) header in descending order
Start Az.
Max El. time (UTC)
Max El. Az.
Max El.
End time (UTC)
End Az.
|